Hourly Data Report for June 08, 2004

TORONTO CITY
ONTARIO

43°40'00.000" N
79°24'00.000" W
112.50 m
6158355
71508
XTO

Download Data

Hourly Data (June 2004)
Hourly Data Report for June 8, 2004
TIME
LST
Temp Definition
°C
Dew Point Definition
°C
Rel Hum Definition
%
Precip. Amount Definition
mm

Wind Dir Definition
10's deg

Wind Spd Definition
km/h
Visibility Definition
km
Stn Press Definition
kPa
Hmdx Definition


Wind Chill Definition


Weather Definition


00:00 18.2 14.8 81   LegendMM LegendMM LegendMM 100.55     LegendNANA
01:00 17.7 14.8 83   LegendMM LegendMM LegendMM 100.54     LegendNANA
02:00 17.3 14.5 84   LegendMM LegendMM LegendMM 100.51     LegendNANA
03:00 16.6 14.0 85   LegendMM LegendMM LegendMM 100.47     LegendNANA
04:00 16.4 14.2 87   LegendMM LegendMM LegendMM 100.47     LegendNANA
05:00 16.2 14.4 89   LegendMM LegendMM LegendMM 100.53     LegendNANA
06:00 17.6 15.6 88   LegendMM LegendMM LegendMM 100.51     LegendNANA
07:00 19.8 16.0 79   LegendMM LegendMM LegendMM 100.60     LegendNANA
08:00 21.1 15.9 72   LegendMM LegendMM LegendMM 100.61 26   LegendNANA
09:00 23.1 17.0 69   LegendMM LegendMM LegendMM 100.59 28   LegendNANA
10:00 24.7 17.7 65   LegendMM LegendMM LegendMM 100.51 30   LegendNANA
11:00 25.7 17.9 62   LegendMM LegendMM LegendMM 100.45 32   LegendNANA
12:00 27.0 19.0 62   LegendMM LegendMM LegendMM 100.42 34   LegendNANA
13:00 27.6 19.6 62   LegendMM LegendMM LegendMM 100.34 35   LegendNANA
14:00 28.7 20.0 59   LegendMM LegendMM LegendMM 100.28 36   LegendNANA
15:00 28.7 19.7 58   LegendMM LegendMM LegendMM 100.22 36   LegendNANA
16:00 27.7 19.2 60   LegendMM LegendMM LegendMM 100.20 35   LegendNANA
17:00 27.7 18.8 58   LegendMM LegendMM LegendMM 100.15 34   LegendNANA
18:00 26.9 18.8 61   LegendMM LegendMM LegendMM 100.18 34   LegendNANA
19:00 27.4 18.6 59   LegendMM LegendMM LegendMM 100.19 34   LegendNANA
20:00 26.3 19.3 65   LegendMM LegendMM LegendMM 100.22 33   LegendNANA
21:00 25.8 19.3 67   LegendMM LegendMM LegendMM 100.25 33   LegendNANA
22:00 24.4 19.2 73   LegendMM LegendMM LegendMM 100.26 31   LegendNANA
23:00 23.2 19.4 79   LegendMM LegendMM LegendMM 100.24 30   LegendNANA

Notes on Data Quality.

Legend

  • E = Estimated
  • M = Missing
  • NA = Not Available*
  • [empty] = Indicates an unobserved value
Date modified: